Date String (YYYY-MM-DD hh:mm:ss) UTC,Instrument flags,absolute air pressure of the measurement (hPa),sample flow rate (lpm),inlet stack bypass flow (lpm),air temperature of the measurement (°C),ambient temperature measured by the external sensor (°C),aerosol sample conditioner tube jacket temperature (°C),OPC LED temperature (°C),internal box temperature (°C),relative humidity of the measurement (%),span deviation,mass concentration of particles derived from Lorenz-Mie calculation of OPC scattering (μg/m³),mass concentration of particles derived from Lorenz-Mie calculation of OPC scattering (μg/m³),mass concentration of particles derived from Lorenz-Mie calculation of OPC scattering (μg/m³)
DateTimeUTC,F1_M11,P_M11,Q1_M11,Q2_M11,T1_M11,T2_M11,T3_M11,T4_M11,T5_M11,U1_M11,ZSPAN_M11,X2_M11,X0_M11,X1_M11
2023-06-01 20:00:00,SystemResetWarning,0825.9,4.99,000.00,029.5,027.4,000.0,037.9,031.2,28.1,0000.9,0006.20,0013.91,0005.07
2023-06-01 20:01:00,SystemResetWarning,0825.9,4.99,000.00,029.6,027.6,000.0,037.9,031.2,29.1,0001.5,0006.19,0014.28,0005.04
2023-06-01 20:02:00,SystemResetWarning,0825.9,5.01,000.00,029.6,027.7,000.0,037.9,031.2,28.5,0001.7,0006.25,0014.76,0005.06
2023-06-01 20:03:00,SystemResetWarning,0825.9,5.01,000.00,029.6,027.9,000.0,037.9,031.2,28.1,0001.6,0006.30,0013.98,0005.13
2023-06-01 20:04:00,SystemResetWarning,0825.9,5.00,000.00,029.6,028.0,000.0,038.0,031.3,28.3,0002.0,0006.30,0013.81,0005.17
2023-06-01 20:05:00,SystemResetWarning,0826.0,5.00,000.00,029.6,028.1,000.0,038.0,031.3,28.6,0002.4,0006.28,0014.13,0005.19
2023-06-01 20:06:00,SystemResetWarning,0825.9,5.00,000.00,029.6,028.1,000.0,038.0,031.3,29.4,0002.4,0006.31,0014.08,0005.18
2023-06-01 20:07:00,SystemResetWarning,0825.9,5.00,000.00,029.7,028.2,000.0,038.0,031.3,28.6,0002.5,0006.40,0014.14,0005.23
2023-06-01 20:08:00,SystemResetWarning,0825.9,4.99,000.00,029.7,028.2,000.0,038.0,031.3,28.8,0002.2,0006.41,0014.11,0005.28
2023-06-01 20:09:00,SystemResetWarning,0825.9,5.00,000.00,029.7,028.2,000.0,038.0,031.3,28.8,0002.1,0006.47,0013.96,0005.33
2023-06-01 20:10:00,SystemResetWarning,0825.9,5.00,000.00,029.7,028.3,000.0,038.0,031.3,28.5,0002.3,0006.61,0013.33,0005.44
2023-06-01 20:11:00,SystemResetWarning,0825.9,5.00,000.00,029.7,028.3,000.0,038.0,031.3,28.4,0001.9,0006.73,0013.29,0005.56
2023-06-01 20:12:00,SystemResetWarning,0825.8,5.00,000.00,029.7,028.3,000.0,038.0,031.3,28.9,0001.9,0006.83,0012.85,0005.64
2023-06-01 20:13:00,SystemResetWarning,0825.8,5.00,000.00,029.7,028.3,000.0,038.0,031.3,28.7,0001.7,0006.83,0012.80,0005.67
2023-06-01 20:14:00,SystemResetWarning,0825.8,5.00,000.00,029.7,028.3,000.0,038.0,031.4,26.5,0001.5,0006.78,0012.64,0005.62
2023-06-01 20:15:00,SystemResetWarning,0825.8,4.98,000.00,029.7,027.4,000.0,038.0,031.2,24.0,0001.5,0006.59,0012.39,0005.43
2023-06-01 20:16:00,SystemResetWarning,0825.8,5.00,000.00,029.7,026.1,000.0,037.9,031.1,25.1,0001.1,0006.46,0012.18,0005.28
2023-06-01 20:17:00,SystemResetWarning,0825.8,5.01,000.00,029.6,025.8,000.0,037.9,031.0,24.6,0001.1,0006.34,0011.78,0005.16
2023-06-01 20:18:00,SystemResetWarning,0825.8,5.01,000.00,029.5,026.0,000.0,037.9,030.9,23.6,0000.9,0006.16,0011.52,0004.99
2023-06-01 20:19:00,SystemResetWarning,0825.8,5.00,000.00,029.5,026.3,000.0,037.9,030.9,22.9,0000.3,0005.93,0011.29,0004.77
2023-06-01 20:20:00,SystemResetWarning,0825.7,5.00,000.00,029.5,026.6,000.0,037.9,031.0,22.4,0000.0,0005.74,0011.09,0004.57
2023-06-01 20:21:00,SystemResetWarning,0825.7,5.00,000.00,029.5,026.9,000.0,037.9,031.0,22.3,0000.0,0005.44,0010.62,0004.31
2023-06-01 20:22:00,SystemResetWarning,0825.7,4.99,000.00,029.5,027.1,000.0,037.9,031.1,22.7,0000.0,0005.12,0010.11,0004.06
2023-06-01 20:23:00,SystemResetWarning,0825.7,4.99,000.00,029.5,027.4,000.0,037.9,031.1,23.6,0000.0,0004.81,0009.64,0003.79
2023-06-01 20:24:00,SystemResetWarning,0825.7,5.00,000.00,029.5,027.6,000.0,037.9,031.1,24.2,0000.0,0004.58,0009.18,0003.58
2023-06-01 20:25:00,SystemResetWarning,0825.7,5.00,000.00,029.5,027.7,000.0,037.9,031.2,24.1,0000.0,0004.39,0008.86,0003.43
2023-06-01 20:26:00,SystemResetWarning,0825.7,5.00,000.00,029.5,027.9,000.0,037.9,031.2,24.1,0000.0,0004.37,0008.84,0003.41
2023-06-01 20:27:00,SystemResetWarning,0825.8,5.01,000.00,029.5,028.0,000.0,037.9,031.2,24.4,0000.0,0004.34,0008.43,0003.38
2023-06-01 20:28:00,SystemResetWarning,0825.8,5.00,000.00,029.6,028.1,000.0,037.9,031.2,25.3,0000.0,0004.30,0008.28,0003.37
2023-06-01 20:29:00,SystemResetWarning,0825.8,4.99,000.00,029.6,028.1,000.0,037.9,031.3,24.8,0000.0,0004.26,0008.22,0003.39
2023-06-01 20:30:00,SystemResetWarning,0825.7,5.00,000.00,029.6,028.2,000.0,037.9,031.3,24.4,0000.0,0004.22,0008.08,0003.40
2023-06-01 20:31:00,SystemResetWarning,0825.7,5.00,000.00,029.6,028.3,000.0,037.9,031.3,24.8,0000.0,0004.21,0008.05,0003.41
2023-06-01 20:32:00,SystemResetWarning,0825.7,5.00,000.00,029.7,028.3,000.0,038.0,031.4,25.7,0000.0,0004.26,0008.23,0003.45
2023-06-01 20:33:00,SystemResetWarning,0825.7,5.00,000.00,029.7,028.4,000.0,038.0,031.4,26.2,0000.0,0004.38,0008.44,0003.54
2023-06-01 20:34:00,SystemResetWarning,0825.7,5.01,000.00,029.7,028.5,000.0,038.0,031.4,25.3,0000.0,0004.44,0008.55,0003.59
2023-06-01 20:35:00,SystemResetWarning,0825.7,5.00,000.00,029.8,028.5,000.0,038.0,031.4,25.2,0000.0,0004.49,0008.65,0003.63
2023-06-01 20:36:00,SystemResetWarning,0825.7,5.00,000.00,029.8,028.5,000.0,038.0,031.5,25.0,0000.0,0004.52,0009.00,0003.64
2023-06-01 20:37:00,SystemResetWarning,0825.6,5.00,000.00,029.8,028.6,000.0,038.1,031.5,24.0,0000.0,0004.56,0009.11,0003.65
2023-06-01 20:38:00,SystemResetWarning,0825.6,4.98,000.00,029.8,027.6,000.0,038.0,031.4,23.9,0000.0,0004.56,0009.04,0003.66
2023-06-01 20:39:00,SystemResetWarning,0825.6,5.00,000.00,029.8,025.8,000.0,037.9,031.1,23.4,0000.0,0004.59,0009.09,0003.64
2023-06-01 20:40:00,SystemResetWarning,0825.6,5.01,000.00,029.7,025.0,000.0,037.8,030.9,24.6,0000.0,0004.60,0009.08,0003.64
2023-06-01 20:41:00,SystemResetWarning,0825.6,5.01,000.00,029.6,025.2,000.0,037.8,030.7,25.7,0000.0,0004.65,0009.13,0003.67
2023-06-01 20:42:00,SystemResetWarning,0825.5,5.00,000.00,029.5,025.5,000.0,037.8,030.8,26.4,0000.0,0004.74,0009.29,0003.73
2023-06-01 20:43:00,SystemResetWarning,0825.6,4.99,000.00,029.4,025.9,000.0,037.8,030.8,26.2,0000.0,0004.77,0009.24,0003.75
2023-06-01 20:44:00,SystemResetWarning,0825.5,5.01,000.00,029.4,026.3,000.0,037.8,030.9,25.1,0000.0,0004.77,0009.31,0003.69
2023-06-01 20:45:00,SystemResetWarning,0825.5,5.00,000.00,029.4,026.6,000.0,037.8,030.9,25.7,0000.0,0004.76,0009.50,0003.67
2023-06-01 20:46:00,SystemResetWarning,0825.5,5.00,000.00,029.4,027.0,000.0,037.8,031.0,26.6,0000.0,0004.84,0009.73,0003.73
2023-06-01 20:47:00,SystemResetWarning,0825.4,5.00,000.00,029.4,027.2,000.0,037.8,031.0,25.4,0000.0,0004.88,0009.66,0003.74
2023-06-01 20:48:00,SystemResetWarning,0825.4,5.00,000.00,029.4,027.4,000.0,037.8,031.0,24.2,0000.0,0004.83,0009.57,0003.74
2023-06-01 20:49:00,SystemResetWarning,0825.4,5.00,000.00,029.4,027.6,000.0,037.8,031.1,24.0,0000.0,0004.82,0009.55,0003.75
2023-06-01 20:50:00,SystemResetWarning,0825.4,5.00,000.00,029.4,027.8,000.0,037.8,031.1,23.7,0000.0,0004.77,0009.42,0003.75
2023-06-01 20:51:00,SystemResetWarning,0825.4,5.00,000.00,029.5,027.9,000.0,037.8,031.1,24.0,0000.0,0004.74,0009.41,0003.74
2023-06-01 20:52:00,SystemResetWarning,0825.4,5.00,000.00,029.5,028.0,000.0,037.8,031.2,23.3,0000.0,0004.67,0009.30,0003.69
2023-06-01 20:53:00,SystemResetWarning,0825.4,5.00,000.00,029.5,028.1,000.0,037.8,031.2,22.3,0000.0,0004.60,0009.19,0003.63
2023-06-01 20:54:00,SystemResetWarning,0825.4,4.99,000.00,029.5,028.2,000.0,037.8,031.3,22.2,0000.0,0004.53,0009.08,0003.58
2023-06-01 20:55:00,SystemResetWarning,0825.3,5.00,000.00,029.6,028.2,000.0,037.9,031.3,22.5,0000.0,0004.41,0008.91,0003.52
2023-06-01 20:56:00,SystemResetWarning,0825.4,4.99,000.00,029.6,028.3,000.0,037.9,031.3,22.5,0000.0,0004.33,0008.64,0003.48
2023-06-01 20:57:00,SystemResetWarning,0825.3,5.00,000.00,029.6,028.4,000.0,037.9,031.3,22.2,0000.0,0004.19,0008.26,0003.38
2023-06-01 20:58:00,SystemResetWarning,0825.3,5.00,000.00,029.7,028.4,000.0,037.9,031.4,21.9,0000.0,0004.06,0007.89,0003.30
2023-06-01 20:59:00,SystemResetWarning,0825.3,5.00,000.00,029.7,028.4,000.0,037.9,031.4,22.7,0000.0,0004.03,0007.78,0003.27
